| time (UTC) | temp F | wind direction | speed knots | gust knots | rain 1hr in | rain 24hr in | rain mn in | humidity % | barometer mb |
| 20260902040344 | 61 | 263 | 4.3 | 11.3 | 0.00 | 0.11 | 0.00 | 62 | 1015.5 |
| 20260902035854 | 60 | 263 | 3.5 | 11.3 | 0.00 | 0.11 | 0.00 | 62 | 1015.5 |
| 20260902035401 | 60 | 263 | 2.6 | 11.3 | 0.00 | 0.11 | 0.00 | 63 | 1015.5 |
| 20260902034906 | 60 | 263 | 1.7 | 7.0 | 0.00 | 0.11 | 0.00 | 63 | 1015.5 |
| 20260902034356 | 60 | 263 | 2.6 | 9.6 | 0.00 | 0.11 | 0.00 | 63 | 1015.8 |
| 20260902033851 | 59 | 263 | 3.5 | 9.6 | 0.00 | 0.11 | 0.00 | 65 | 1015.8 |
| 20260902033400 | 59 | 263 | 3.5 | 9.6 | 0.00 | 0.11 | 0.00 | 66 | 1015.8 |
| 20260902032900 | 58 | 263 | 3.5 | 9.6 | 0.00 | 0.11 | 0.00 | 65 | 1015.9 |
| 20260902032349 | 58 | 263 | 3.5 | 8.7 | 0.00 | 0.11 | 0.00 | 65 | 1015.9 |
| 20260902031227 | 58 | 263 | 3.5 | 8.7 | 0.00 | 0.11 | 0.00 | 66 | 1016.0 |
| 20260902030732 | 58 | 263 | 4.3 | 8.7 | 0.00 | 0.11 | 0.00 | 66 | 1016.0 |
| 20260902030228 | 58 | 263 | 3.5 | 8.7 | 0.00 | 0.11 | 0.00 | 66 | 1016.0 |
| 20260902025721 | 58 | 263 | 2.6 | 9.6 | 0.00 | 0.11 | 0.00 | 66 | 1016.2 |
| 20260902025228 | 58 | 263 | 3.5 | 9.6 | 0.00 | 0.11 | 0.00 | 66 | 1016.2 |
| 20260902024731 | 58 | 263 | 3.5 | 14.8 | 0.00 | 0.11 | 0.00 | 66 | 1016.2 |
| 20260902024223 | 58 | 263 | 2.6 | 14.8 | 0.00 | 0.11 | 0.00 | 68 | 1016.4 |
| 20260902023723 | 57 | 263 | 4.3 | 14.8 | 0.00 | 0.11 | 0.00 | 69 | 1016.4 |
| 20260902022552 | 58 | 263 | 5.2 | 10.4 | 0.00 | 0.11 | 0.00 | 70 | 1016.5 |
| 20260902022057 | 58 | 263 | 6.1 | 10.4 | 0.00 | 0.11 | 0.00 | 71 | 1016.5 |
| 20260902020942 | 58 | 263 | 4.3 | 11.3 | 0.00 | 0.11 | 0.00 | 74 | 1016.6 |
| 20260902020442 | 58 | 263 | 4.3 | 11.3 | 0.00 | 0.11 | 0.00 | 75 | 1016.6 |
| 20260902015936 | 58 | 263 | 5.2 | 11.3 | 0.00 | 0.11 | 0.00 | 74 | 1016.6 |
| 20260902015445 | 58 | 263 | 4.3 | 9.6 | 0.00 | 0.11 | 0.00 | 73 | 1016.8 |
| 20260902014934 | 59 | 263 | 3.5 | 9.6 | 0.00 | 0.11 | 0.00 | 71 | 1016.8 |
| 20260902013740 | 58 | 263 | 3.5 | 8.7 | 0.00 | 0.11 | 0.00 | 66 | 1016.9 |
| 20260902012636 | 58 | 263 | 2.6 | 7.0 | 0.00 | 0.11 | 0.00 | 67 | 1017.0 |
| 20260902012123 | 58 | 263 | 2.6 | 8.7 | 0.00 | 0.11 | 0.00 | 68 | 1017.0 |
| 20260902011624 | 58 | 263 | 3.5 | 8.7 | 0.00 | 0.11 | 0.00 | 70 | 1017.0 |
| 20260902011106 | 58 | 263 | 3.5 | 10.4 | 0.00 | 0.11 | 0.00 | 70 | 1017.0 |
| 20260902010608 | 58 | 263 | 3.5 | 10.4 | 0.00 | 0.11 | 0.00 | 70 | 1017.0 |
| 20260902010057 | 58 | 263 | 4.3 | 10.4 | 0.00 | 0.11 | 0.00 | 70 | 1017.0 |
| 20260902005544 | 58 | 263 | 3.5 | 8.7 | 0.00 | 0.11 | 0.00 | 72 | 1017.3 |
| 20260902005035 | 58 | 263 | 3.5 | 8.7 | 0.00 | 0.11 | 0.00 | 73 | 1017.3 |
| 20260902004537 | 57 | 263 | 3.5 | 7.8 | 0.00 | 0.11 | 0.00 | 73 | 1017.3 |
| 20260902004038 | 58 | 263 | 3.5 | 7.8 | 0.00 | 0.11 | 0.00 | 73 | 1017.5 |
| 20260902003530 | 58 | 263 | 3.5 | 7.8 | 0.00 | 0.11 | 0.00 | 72 | 1017.5 |
| 20260902003038 | 57 | 263 | 3.5 | 7.8 | 0.00 | 0.11 | 0.00 | 72 | 1017.5 |
| 20260902002526 | 57 | 263 | 2.6 | 9.6 | 0.00 | 0.11 | 0.00 | 73 | 1017.5 |
| 20260902002026 | 57 | 263 | 2.6 | 9.6 | 0.00 | 0.11 | 0.00 | 73 | 1017.5 |
| 20260902001535 | 57 | 263 | 3.5 | 9.6 | 0.00 | 0.11 | 0.00 | 75 | 1017.5 |
| 20260902001041 | 57 | 263 | 3.5 | 9.6 | 0.00 | 0.11 | 0.00 | 76 | 1017.5 |
| 20260901235922 | 57 | 263 | 3.5 | 8.7 | 0.00 | 0.11 | 0.00 | 78 | 1017.5 |
| 20260901235413 | 57 | 263 | 3.5 | 8.7 | 0.00 | 0.11 | 0.00 | 78 | 1017.5 |
| 20260901234912 | 57 | 263 | 2.6 | 8.7 | 0.00 | 0.11 | 0.00 | 79 | 1017.5 |
| 20260901234410 | 57 | 263 | 2.6 | 7.8 | 0.00 | 0.11 | 0.00 | 80 | 1017.5 |
| 20260901233909 | 57 | 263 | 3.5 | 7.8 | 0.00 | 0.11 | 0.00 | 81 | 1017.5 |
| 20260901233405 | 57 | 263 | 2.6 | 7.0 | 0.00 | 0.11 | 0.00 | 81 | 1017.5 |
| 20260901232902 | 56 | 263 | 1.7 | 5.2 | 0.00 | 0.11 | 0.00 | 83 | 1017.5 |
| 20260901232353 | 56 | 263 | 1.7 | 5.2 | 0.00 | 0.11 | 0.00 | 83 | 1017.5 |
| 20260901231840 | 56 | 263 | 2.6 | 7.0 | 0.00 | 0.11 | 0.00 | 84 | 1017.5 |
| 20260901231328 | 56 | 263 | 1.7 | 7.0 | 0.00 | 0.11 | 0.00 | 85 | 1017.6 |
| 20260901230819 | 56 | 263 | 2.6 | 7.0 | 0.00 | 0.11 | 0.00 | 85 | 1017.6 |
| 20260901230315 | 56 | 263 | 1.7 | 7.0 | 0.00 | 0.11 | 0.00 | 86 | 1017.6 |
| 20260901225814 | 56 | 263 | 1.7 | 5.2 | 0.00 | 0.11 | 0.00 | 86 | 1017.6 |
| 20260901225308 | 56 | 263 | 1.7 | 7.0 | 0.00 | 0.11 | 0.00 | 87 | 1017.6 |
| 20260901224812 | 56 | 263 | 1.7 | 7.0 | 0.00 | 0.11 | 0.00 | 87 | 1017.6 |
| 20260901224254 | 56 | 263 | 2.6 | 7.0 | 0.00 | 0.11 | 0.00 | 87 | 1017.5 |
| 20260901223801 | 56 | 263 | 2.6 | 7.0 | 0.00 | 0.11 | 0.00 | 88 | 1017.5 |
| 20260901223305 | 56 | 263 | 1.7 | 5.2 | 0.00 | 0.11 | 0.00 | 88 | 1017.5 |
| 20260901222752 | 55 | 263 | 0.9 | 4.3 | 0.00 | 0.11 | 0.00 | 89 | 1017.4 |
| 20260901222248 | 55 | 263 | 0.0 | 2.6 | 0.00 | 0.11 | 0.00 | 89 | 1017.4 |
| 20260901220518 | 55 | 263 | 0.0 | 0.0 | 0.00 | 0.11 | 0.00 | 89 | 1017.2 |
| 20260901220009 | 54 | 263 | 0.0 | 0.9 | 0.00 | 0.11 | 0.00 | 90 | 1017.2 |
| 20260901215519 | 54 | 263 | 0.0 | 2.6 | 0.00 | 0.11 | 0.00 | 90 | 1017.0 |
| 20260901215006 | 54 | 263 | 0.0 | 3.5 | 0.00 | 0.11 | 0.00 | 90 | 1017.0 |
| 20260901214455 | 54 | 263 | 0.0 | 3.5 | 0.00 | 0.11 | 0.00 | 90 | 1017.0 |
| 20260901213954 | 54 | 263 | 0.0 | 7.8 | 0.00 | 0.11 | 0.00 | 90 | 1017.0 |
| 20260901213438 | 54 | 263 | 1.7 | 7.8 | 0.00 | 0.11 | 0.00 | 90 | 1017.0 |
| 20260901212923 | 54 | 263 | 2.6 | 7.8 | 0.00 | 0.11 | 0.00 | 90 | 1017.0 |
| 20260901212421 | 54 | 263 | 1.7 | 7.8 | 0.00 | 0.11 | 0.00 | 91 | 1016.9 |
| 20260901211308 | 54 | 263 | 0.0 | 3.5 | 0.00 | 0.11 | 0.00 | 91 | 1016.7 |
| 20260901210805 | 53 | 263 | 0.0 | 0.0 | 0.00 | 0.11 | 0.00 | 91 | 1016.7 |
| 20260901210245 | 53 | 263 | 0.0 | 3.5 | 0.00 | 0.11 | 0.00 | 91 | 1016.7 |
| 20260901205122 | 54 | 263 | 0.0 | 0.0 | 0.00 | 0.11 | 0.00 | 91 | 1016.5 |
| 20260901204609 | 54 | 263 | 0.0 | 0.0 | 0.00 | 0.11 | 0.00 | 91 | 1016.5 |
| 20260901204053 | 54 | 263 | 0.0 | 0.0 | 0.00 | 0.11 | 0.00 | 91 | 1016.4 |
| 20260901203547 | 54 | 263 | 0.0 | 0.0 | 0.00 | 0.11 | 0.00 | 91 | 1016.4 |
| 20260901203028 | 54 | 263 | 0.0 | 2.6 | 0.00 | 0.11 | 0.00 | 91 | 1016.4 |
| 20260901202510 | 54 | 263 | 0.9 | 2.6 | 0.00 | 0.11 | 0.00 | 91 | 1016.4 |
| 20260901202006 | 54 | 263 | 0.9 | 2.6 | 0.00 | 0.11 | 0.00 | 91 | 1016.4 |
| 20260901200900 | 54 | 263 | 0.0 | 0.0 | 0.00 | 0.11 | 0.00 | 91 | 1016.4 |
| 20260901200354 | 54 | 263 | 0.0 | 0.0 | 0.00 | 0.11 | 0.00 | 91 | 1016.4 |
| 20260901195858 | 54 | 263 | 0.0 | 0.0 | 0.00 | 0.11 | 0.00 | 91 | 1016.5 |
| 20260901195400 | 54 | 263 | 0.0 | 0.0 | 0.00 | 0.11 | 0.00 | 91 | 1016.5 |
| 20260901194858 | 54 | 263 | 0.0 | 0.0 | 0.00 | 0.11 | 0.00 | 91 | 1016.5 |
| 20260901194348 | 54 | 263 | 0.0 | 0.0 | 0.00 | 0.11 | 0.00 | 91 | 1016.5 |
| 20260901193838 | 54 | 263 | 0.0 | 0.0 | 0.00 | 0.11 | 0.00 | 91 | 1016.5 |
| 20260901193320 | 54 | 263 | 0.0 | 0.0 | 0.00 | 0.11 | 0.00 | 91 | 1016.5 |
| 20260901192130 | 54 | 263 | 0.0 | 0.0 | 0.00 | 0.11 | 0.00 | 91 | 1016.4 |
| 20260901191616 | 54 | 263 | 0.0 | 1.7 | 0.00 | 0.11 | 0.00 | 91 | 1016.4 |
| 20260901190447 | 54 | 263 | 0.0 | 0.0 | 0.00 | 0.11 | 0.00 | 91 | 1016.3 |
| 20260901185942 | 55 | 263 | 0.0 | 0.0 | 0.00 | 0.11 | 0.00 | 91 | 1016.3 |
| 20260901185438 | 54 | 263 | 0.0 | 0.0 | 0.00 | 0.11 | 0.00 | 91 | 1016.4 |
| 20260901184935 | 54 | 263 | 0.0 | 1.7 | 0.00 | 0.11 | 0.00 | 91 | 1016.4 |
| 20260901184416 | 54 | 263 | 0.0 | 0.0 | 0.00 | 0.11 | 0.00 | 91 | 1016.4 |
| 20260901183305 | 54 | 263 | 0.0 | 0.0 | 0.00 | 0.11 | 0.00 | 91 | 1016.2 |
| 20260901182137 | 54 | 263 | 0.0 | 0.0 | 0.00 | 0.11 | 0.00 | 91 | 1016.1 |
| 20260901181618 | 54 | 263 | 0.0 | 0.0 | 0.00 | 0.11 | 0.00 | 91 | 1016.1 |
| 20260901181107 | 54 | 263 | 0.0 | 0.0 | 0.00 | 0.11 | 0.00 | 91 | 1016.0 |
| 20260901175334 | 53 | 263 | 0.0 | 0.0 | 0.00 | 0.11 | 0.00 | 91 | 1016.0 |
| 20260901174820 | 53 | 263 | 0.0 | 0.0 | 0.00 | 0.11 | 0.00 | 91 | 1016.0 |
| 20260901174313 | 53 | 263 | 0.0 | 0.0 | 0.00 | 0.11 | 0.00 | 90 | 1016.1 |
| 20260901173816 | 53 | 263 | 0.0 | 0.0 | 0.00 | 0.11 | 0.00 | 90 | 1016.1 |
| 20260901172649 | 53 | 263 | 0.0 | 0.0 | 0.00 | 0.11 | 0.00 | 90 | 1016.3 |
| 20260901172157 | 53 | 263 | 0.0 | 0.0 | 0.00 | 0.11 | 0.00 | 90 | 1016.3 |
| 20260901171640 | 54 | 263 | 0.0 | 0.0 | 0.00 | 0.11 | 0.00 | 90 | 1016.3 |
| 20260901170506 | 54 | 263 | 0.0 | 0.0 | 0.00 | 0.11 | 0.00 | 90 | 1016.4 |
| 20260901165947 | 54 | 263 | 0.0 | 0.0 | 0.00 | 0.11 | 0.00 | 90 | 1016.4 |
| 20260901165439 | 54 | 263 | 0.0 | 0.0 | 0.00 | 0.11 | 0.00 | 90 | 1016.4 |
| 20260901164946 | 55 | 263 | 0.0 | 0.0 | 0.00 | 0.11 | 0.00 | 90 | 1016.4 |
| 20260901164432 | 55 | 263 | 0.0 | 0.0 | 0.00 | 0.11 | 0.00 | 90 | 1016.4 |
| 20260901163938 | 55 | 263 | 0.0 | 0.0 | 0.00 | 0.11 | 0.00 | 90 | 1016.6 |
| 20260901163430 | 55 | 263 | 0.0 | 0.0 | 0.00 | 0.11 | 0.00 | 90 | 1016.6 |
| 20260901161658 | 55 | 263 | 0.0 | 0.0 | 0.00 | 0.11 | 0.00 | 90 | 1016.6 |
| 20260901160541 | 55 | 263 | 0.0 | 0.0 | 0.00 | 0.11 | 0.00 | 89 | 1016.5 |
| 20260901160038 | 55 | 263 | 0.0 | 0.0 | 0.00 | 0.11 | 0.00 | 89 | 1016.5 |
| 20260901155537 | 56 | 263 | 0.0 | 0.0 | 0.00 | 0.11 | 0.00 | 90 | 1016.4 |
| 20260901153808 | 56 | 263 | 0.0 | 0.0 | 0.00 | 0.11 | 0.00 | 89 | 1016.4 |
| 20260901153249 | 56 | 263 | 0.0 | 0.0 | 0.00 | 0.11 | 0.00 | 89 | 1016.4 |
| 20260901152753 | 56 | 263 | 0.0 | 0.0 | 0.00 | 0.11 | 0.00 | 89 | 1016.4 |
| 20260901152236 | 56 | 263 | 0.0 | 0.0 | 0.00 | 0.11 | 0.00 | 89 | 1016.4 |
| 20260901151742 | 56 | 263 | 0.0 | 0.0 | 0.00 | 0.11 | 0.00 | 89 | 1016.4 |
| 20260901151238 | 56 | 263 | 0.0 | 0.0 | 0.00 | 0.11 | 0.00 | 89 | 1016.3 |
| 20260901150747 | 56 | 263 | 0.0 | 0.9 | 0.00 | 0.11 | 0.00 | 89 | 1016.3 |
| 20260901150244 | 57 | 263 | 0.0 | 0.0 | 0.00 | 0.11 | 0.00 | 89 | 1016.3 |
| 20260901145729 | 57 | 263 | 0.0 | 0.0 | 0.00 | 0.11 | 0.00 | 88 | 1016.3 |
| 20260901145225 | 57 | 263 | 0.0 | 0.0 | 0.00 | 0.11 | 0.00 | 88 | 1016.3 |
| 20260901144717 | 57 | 263 | 0.0 | 0.0 | 0.00 | 0.11 | 0.00 | 88 | 1016.3 |
| 20260901143544 | 58 | 263 | 0.0 | 0.0 | 0.00 | 0.11 | 0.00 | 88 | 1016.3 |
| 20260901143048 | 58 | 263 | 0.0 | 0.0 | 0.00 | 0.11 | 0.00 | 88 | 1016.3 |
| 20260901142533 | 58 | 263 | 0.0 | 0.9 | 0.00 | 0.11 | 0.11 | 88 | 1016.4 |
| 20260901142042 | 58 | 263 | 0.0 | 0.0 | 0.00 | 0.11 | 0.11 | 88 | 1016.4 |
| 20260901141551 | 58 | 263 | 0.0 | 0.0 | 0.00 | 0.11 | 0.11 | 88 | 1016.4 |
| 20260901141053 | 58 | 263 | 0.0 | 0.0 | 0.00 | 0.11 | 0.11 | 88 | 1016.4 |
| 20260901140600 | 59 | 263 | 0.0 | 0.0 | 0.00 | 0.11 | 0.11 | 88 | 1016.4 |
| 20260901140108 | 59 | 263 | 0.0 | 0.0 | 0.00 | 0.11 | 0.11 | 88 | 1016.4 |
| 20260901135605 | 59 | 263 | 0.0 | 0.0 | 0.00 | 0.11 | 0.11 | 88 | 1016.4 |
| 20260901134416 | 59 | 263 | 0.0 | 0.9 | 0.00 | 0.11 | 0.11 | 88 | 1016.4 |
| 20260901133907 | 59 | 263 | 0.0 | 0.0 | 0.00 | 0.11 | 0.11 | 88 | 1016.5 |
| 20260901133351 | 59 | 263 | 0.0 | 1.7 | 0.00 | 0.11 | 0.11 | 88 | 1016.5 |
| 20260901132844 | 59 | 263 | 0.9 | 0.0 | 0.00 | 0.11 | 0.11 | 88 | 1016.6 |
| 20260901132335 | 60 | 263 | 0.9 | 3.5 | 0.00 | 0.11 | 0.11 | 88 | 1016.6 |
| 20260901131816 | 60 | 263 | 0.9 | 3.5 | 0.00 | 0.11 | 0.11 | 88 | 1016.6 |
| 20260901131312 | 60 | 263 | 0.9 | 3.5 | 0.00 | 0.11 | 0.11 | 88 | 1016.4 |
| 20260901130153 | 60 | 263 | 0.0 | 2.6 | 0.00 | 0.11 | 0.11 | 87 | 1016.4 |
| 20260901125649 | 60 | 263 | 0.0 | 0.0 | 0.00 | 0.11 | 0.11 | 87 | 1016.6 |
| 20260901125151 | 60 | 263 | 0.0 | 0.0 | 0.00 | 0.11 | 0.11 | 87 | 1016.6 |
| 20260901124029 | 59 | 263 | 0.0 | 0.0 | 0.00 | 0.11 | 0.11 | 86 | 1016.7 |
| 20260901123533 | 60 | 263 | 0.0 | 0.0 | 0.00 | 0.11 | 0.11 | 86 | 1016.7 |
| 20260901123031 | 60 | 263 | 0.0 | 0.0 | 0.00 | 0.11 | 0.11 | 86 | 1016.7 |
| 20260901122540 | 60 | 263 | 0.0 | 0.0 | 0.00 | 0.11 | 0.11 | 86 | 1016.8 |
| 20260901122040 | 60 | 263 | 0.0 | 0.0 | 0.00 | 0.11 | 0.11 | 86 | 1016.8 |
| 20260901121538 | 60 | 263 | 0.0 | 0.0 | 0.00 | 0.11 | 0.11 | 86 | 1016.8 |
| 20260901120411 | 60 | 263 | 0.0 | 0.0 | 0.00 | 0.11 | 0.11 | 86 | 1016.5 |
| 20260901115249 | 60 | 263 | 0.0 | 0.0 | 0.00 | 0.11 | 0.11 | 86 | 1016.5 |
| 20260901114751 | 60 | 263 | 0.0 | 0.0 | 0.00 | 0.11 | 0.11 | 86 | 1016.5 |
| 20260901113022 | 60 | 263 | 0.0 | 0.0 | 0.00 | 0.11 | 0.11 | 85 | 1016.4 |
| 20260901112522 | 60 | 263 | 0.0 | 0.0 | 0.00 | 0.11 | 0.11 | 85 | 1016.4 |
| 20260901112026 | 60 | 263 | 0.0 | 0.0 | 0.00 | 0.11 | 0.11 | 85 | 1016.4 |
| 20260901111525 | 60 | 263 | 0.0 | 0.0 | 0.00 | 0.11 | 0.11 | 85 | 1016.4 |
| 20260901111025 | 60 | 263 | 0.0 | 0.0 | 0.00 | 0.11 | 0.11 | 85 | 1016.3 |
| 20260901110526 | 60 | 263 | 0.0 | 0.0 | 0.00 | 0.11 | 0.11 | 85 | 1016.3 |
| 20260901104734 | 60 | 263 | 0.0 | 0.0 | 0.00 | 0.11 | 0.11 | 85 | 1016.2 |
| 20260901103556 | 60 | 263 | 0.9 | 4.3 | 0.00 | 0.11 | 0.11 | 86 | 1016.3 |
| 20260901102444 | 60 | 263 | 0.9 | 4.3 | 0.00 | 0.11 | 0.11 | 86 | 1016.1 |
| 20260901101937 | 60 | 263 | 1.7 | 5.2 | 0.00 | 0.11 | 0.11 | 87 | 1016.1 |
| 20260901101418 | 60 | 263 | 1.7 | 5.2 | 0.00 | 0.11 | 0.11 | 87 | 1016.1 |
| 20260901100903 | 59 | 263 | 1.7 | 5.2 | 0.00 | 0.11 | 0.11 | 87 | 1015.9 |
| 20260901100357 | 59 | 263 | 0.0 | 5.2 | 0.00 | 0.11 | 0.11 | 88 | 1015.9 |
| 20260901095844 | 59 | 263 | 0.0 | 2.6 | 0.00 | 0.11 | 0.11 | 88 | 1015.9 |
| 20260901095349 | 59 | 263 | 0.0 | 0.0 | 0.00 | 0.11 | 0.11 | 88 | 1015.9 |
| 20260901094832 | 59 | 263 | 0.0 | 1.7 | 0.00 | 0.11 | 0.11 | 88 | 1015.9 |
| 20260901094322 | 59 | 263 | 0.0 | 0.0 | 0.00 | 0.11 | 0.11 | 88 | 1015.4 |
| 20260901093207 | 59 | 263 | 0.0 | 0.0 | 0.00 | 0.11 | 0.11 | 88 | 1015.4 |
| 20260901092651 | 59 | 263 | 0.0 | 0.0 | 0.00 | 0.11 | 0.11 | 88 | 1015.3 |
| 20260901091521 | 59 | 263 | 0.0 | 0.0 | 0.00 | 0.11 | 0.11 | 88 | 1015.3 |
| 20260901091015 | 59 | 263 | 0.0 | 4.3 | 0.00 | 0.11 | 0.11 | 88 | 1014.9 |
| 20260901085914 | 59 | 263 | 0.9 | 4.3 | 0.00 | 0.11 | 0.11 | 88 | 1014.9 |
| 20260901085403 | 59 | 263 | 0.0 | 3.5 | 0.00 | 0.11 | 0.11 | 88 | 1014.9 |
| 20260901084852 | 59 | 263 | 0.0 | 2.6 | 0.00 | 0.11 | 0.11 | 88 | 1014.9 |
| 20260901084345 | 59 | 263 | 0.0 | 0.0 | 0.00 | 0.11 | 0.11 | 87 | 1014.8 |
| 20260901083839 | 59 | 263 | 0.0 | 0.0 | 0.00 | 0.11 | 0.11 | 87 | 1014.8 |
| 20260901083322 | 59 | 263 | 0.9 | 3.5 | 0.00 | 0.11 | 0.11 | 87 | 1014.8 |
| 20260901082812 | 59 | 263 | 0.9 | 3.5 | 0.00 | 0.11 | 0.11 | 87 | 1014.8 |
| 20260901082316 | 59 | 263 | 0.9 | 3.5 | 0.00 | 0.11 | 0.11 | 87 | 1014.8 |
| 20260901081821 | 59 | 263 | 0.9 | 3.5 | 0.00 | 0.11 | 0.11 | 87 | 1014.8 |
| 20260901081303 | 59 | 263 | 0.9 | 5.2 | 0.00 | 0.11 | 0.11 | 87 | 1014.7 |
| 20260901080746 | 59 | 263 | 0.9 | 5.2 | 0.00 | 0.11 | 0.11 | 87 | 1014.7 |
| 20260901080243 | 59 | 263 | 0.9 | 5.2 | 0.00 | 0.11 | 0.11 | 87 | 1014.7 |
| 20260901075739 | 59 | 263 | 1.7 | 5.2 | 0.00 | 0.11 | 0.11 | 87 | 1014.4 |
| 20260901075221 | 59 | 263 | 1.7 | 5.2 | 0.00 | 0.11 | 0.11 | 87 | 1014.4 |
| 20260901074057 | 59 | 263 | 1.7 | 7.0 | 0.00 | 0.11 | 0.11 | 87 | 1014.3 |
| 20260901073601 | 59 | 263 | 1.7 | 7.8 | 0.00 | 0.11 | 0.11 | 87 | 1014.3 |
| 20260901073044 | 59 | 263 | 2.6 | 7.8 | 0.00 | 0.11 | 0.11 | 87 | 1014.3 |
| 20260901072528 | 59 | 263 | 2.6 | 8.7 | 0.00 | 0.11 | 0.11 | 86 | 1014.3 |
| 20260901072013 | 59 | 263 | 2.6 | 8.7 | 0.00 | 0.11 | 0.11 | 86 | 1014.3 |
| 20260901071459 | 59 | 263 | 3.5 | 8.7 | 0.00 | 0.11 | 0.11 | 86 | 1014.3 |
| 20260901070958 | 59 | 263 | 3.5 | 10.4 | 0.00 | 0.11 | 0.11 | 86 | 1014.3 |
| 20260901070451 | 59 | 263 | 2.6 | 10.4 | 0.03 | 0.11 | 0.11 | 85 | 1014.3 |
| 20260901065345 | 60 | 263 | 3.5 | 10.4 | 0.12 | 0.10 | 0.11 | 84 | 1014.9 |
| 20260901064205 | 61 | 263 | 1.7 | 4.3 | 0.12 | 0.08 | 0.09 | 82 | 1016.0 |
| 20260901063714 | 61 | 263 | 0.0 | 3.5 | 0.07 | 0.07 | 0.08 | 80 | 1016.0 |
| 20260901063212 | 62 | 263 | 0.0 | 1.7 | 0.14 | 0.07 | 0.07 | 79 | 1016.0 |
| 20260901062718 | 62 | 263 | 0.0 | 1.7 | 0.09 | 0.06 | 0.07 | 78 | 1016.1 |
| 20260901062208 | 62 | 263 | 0.0 | 0.0 | 0.10 | 0.05 | 0.06 | 76 | 1016.1 |
| 20260901061701 | 62 | 263 | 0.0 | 0.9 | 0.10 | 0.04 | 0.04 | 75 | 1016.1 |
| 20260901061200 | 63 | 263 | 0.0 | 0.9 | 0.11 | 0.03 | 0.03 | 74 | 1016.1 |
| 20260901060659 | 63 | 263 | 0.0 | 0.9 | 0.11 | 0.03 | 0.03 | 73 | 1016.1 |
| 20260901060141 | 63 | 263 | 0.9 | 0.0 | 0.13 | 0.02 | 0.02 | 72 | 1016.1 |
| 20260901055638 | 64 | 263 | 2.6 | 7.8 | 0.00 | 0.00 | 0.00 | 71 | 1016.4 |
| 20260901055118 | 64 | 263 | 4.3 | 16.5 | 0.00 | 0.00 | 0.00 | 69 | 1016.4 |
| 20260901053326 | 67 | 263 | 7.0 | 15.6 | 0.00 | 0.00 | 0.00 | 60 | 1015.8 |
| 20260901052815 | 68 | 263 | 5.2 | 15.6 | 0.00 | 0.00 | 0.00 | 57 | 1015.4 |
| 20260901052310 | 68 | 263 | 2.6 | 11.3 | 0.00 | 0.00 | 0.00 | 55 | 1015.4 |
| 20260901051814 | 68 | 263 | 1.7 | 7.8 | 0.00 | 0.00 | 0.00 | 55 | 1015.4 |
| 20260901051306 | 68 | 263 | 2.6 | 7.8 | 0.00 | 0.00 | 0.00 | 54 | 1015.0 |
| 20260901050759 | 68 | 263 | 1.7 | 8.7 | 0.00 | 0.00 | 0.00 | 54 | 1015.0 |
| 20260901050256 | 68 | 263 | 1.7 | 8.7 | 0.00 | 0.00 | 0.00 | 54 | 1015.0 |
| 20260901045806 | 68 | 263 | 1.7 | 12.2 | 0.00 | 0.00 | 0.00 | 54 | 1015.2 |
| 20260901045247 | 68 | 263 | 0.9 | 12.2 | 0.00 | 0.00 | 0.00 | 55 | 1015.2 |
| 20260901044755 | 68 | 263 | 1.7 | 12.2 | 0.00 | 0.00 | 0.00 | 55 | 1015.2 |
| 20260901044258 | 68 | 263 | 1.7 | 12.2 | 0.00 | 0.00 | 0.00 | 54 | 1015.3 |
| 20260901043759 | 69 | 263 | 1.7 | 10.4 | 0.00 | 0.00 | 0.00 | 54 | 1015.3 |
| 20260901043308 | 69 | 263 | 2.6 | 10.4 | 0.00 | 0.00 | 0.00 | 53 | 1015.3 |
| 20260901042132 | 69 | 263 | 2.6 | 10.4 | 0.00 | 0.00 | 0.00 | 52 | 1014.8 |
| 20260901041625 | 69 | 263 | 1.7 | 5.2 | 0.00 | 0.00 | 0.00 | 52 | 1014.8 |
| 20260901041133 | 69 | 263 | 1.7 | 5.2 | 0.00 | 0.00 | 0.00 | 52 | 1015.2 |
| 20260901040613 | 69 | 263 | 0.9 | 7.8 | 0.00 | 0.00 | 0.00 | 53 | 1015.2 |